Theta_e
334 334 334 334 333 333 333 333 332 332 332 332 332 332 332 331 330 330 329 329 328 327 326 325 323 323 322 321 318 316 315 314 314 314 313 313 314 314 314 315 316 317 317 317 317 316 315 315 313 310 309 306 303 302 301 301 300 300 301 302 303 304 305
335 333 333 333 332 332 332 332 332 332 332 332 331 331 330 330 329 329 328 327 326 325 323 321 320 319 318 316 315 314 314 313 312 312 311 310 310 310 310 310 311 311 312 313 314 313 312 310 307 304 303 302 302 300 299 299 299 298 298 298 298 299 300
335 333 333 332 331 332 332 332 332 332 332 331 331 330 330 329 328 327 326 325 324 322 319 318 316 315 315 314 313 312 312 311 310 310 309 308 307 307 307 307 307 307 307 307 306 305 303 302 301 300 299 300 301 301 299 298 298 298 298 298 298 298 298
334 333 332 331 331 331 330 331 332 332 331 330 330 330 329 328 326 325 324 322 321 318 316 315 314 314 313 312 311 310 309 309 308 307 306 305 305 304 304 303 303 302 301 300 299 298 298 298 298 298 298 298 299 300 299 298 298 298 298 298 298 298 298
333 333 332 332 331 331 330 331 331 331 330 329 328 328 327 325 323 322 321 319 317 315 315 314 313 312 311 310 309 308 307 307 305 304 303 303 302 302 302 301 300 299 298 298 298 298 298 298 298 298 297 298 298 299 298 298 298 298 298 298 298 299 299
333 333 332 332 331 331 331 331 330 329 328 328 327 326 324 322 321 319 317 316 315 314 313 312 311 310 309 308 307 306 305 304 303 302 301 301 300 300 300 300 298 297 297 298 298 298 298 297 297 297 297 297 298 298 298 298 298 298 298 298 298 299 299
333 333 332 332 331 331 331 330 329 328 327 326 324 323 321 319 317 316 315 314 313 312 311 310 309 308 307 306 305 303 302 301 300 300 299 300 299 299 298 298 297 297 298 298 297 297 297 297 297 297 297 297 298 298 298 298 298 298 298 298 298 299 299
334 333 332 332 331 331 330 329 328 326 325 324 323 321 318 316 315 314 313 312 312 310 309 308 307 306 304 303 302 301 300 300 300 299 299 298 298 298 297 297 297 297 297 297 297 297 297 297 297 297 297 298 298 298 298 298 298 298 298 298 298 298 299
333 333 332 331 330 329 328 327 326 324 323 323 322 319 316 314 313 312 311 311 310 308 307 306 304 303 302 301 300 299 299 299 299 298 298 298 297 297 297 297 297 297 297 297 297 297 297 297 297 297 297 297 298 298 298 298 298 298 298 298 299 298 298
333 332 331 330 329 328 326 325 324 323 322 322 320 316 314 312 311 310 310 309 308 306 305 303 302 301 299 299 299 298 299 299 298 297 297 297 297 297 297 297 297 297 297 297 297 297 297 297 297 297 298 298 298 297 298 298 298 298 298 298 298 298 298
331 330 329 328 328 326 325 323 322 322 321 320 317 314 312 311 310 309 308 307 305 304 302 300 299 299 298 298 298 298 298 298 297 297 297 297 297 296 297 297 297 297 297 297 297 297 297 297 297 297 297 297 298 297 296 296 297 297 298 297 297 297 298
330 329 328 327 326 325 324 323 321 321 320 318 314 312 311 310 309 308 306 304 302 300 299 298 298 298 298 298 297 297 298 297 297 297 296 296 296 296 296 296 296 296 296 296 297 297 297 297 297 297 297 297 297 297 296 295 296 297 297 297 297 297 297
328 327 327 326 325 324 323 322 321 320 319 316 313 311 309 309 307 305 303 301 299 298 297 297 298 298 297 297 297 297 297 297 296 296 296 296 296 296 296 296 296 296 296 296 297 297 297 297 297 297 297 297 297 297 296 296 296 297 296 296 297 297 297
326 326 325 324 324 323 322 321 320 319 317 314 311 309 308 306 305 302 300 298 297 297 297 297 297 297 297 297 297 297 296 296 296 296 296 296 296 296 296 296 296 296 296 296 296 297 297 297 297 297 297 297 296 296 296 296 296 296 297 296 296 297 297
325 324 324 323 323 322 321 320 319 317 315 313 310 307 305 303 301 299 298 297 297 296 297 297 297 297 297 297 297 297 296 296 296 296 296 296 296 296 296 296 296 296 296 296 296 297 297 297 297 297 296 296 296 296 296 296 295 296 296 297 296 297 297
323 323 322 322 321 320 319 318 316 314 312 310 307 305 302 300 298 297 297 297 296 296 297 297 297 297 297 298 297 297 296 296 296 296 296 296 295 295 295 295 296 296 296 296 296 296 296 296 296 296 296 296 296 296 296 295 295 295 295 296 296 296 296
321 321 320 320 319 318 317 315 313 312 310 307 304 302 299 297 297 297 296 296 296 296 297 297 297 297 297 298 297 296 296 296 296 296 295 295 295 295 295 295 295 295 296 296 296 296 296 296 296 295 295 295 295 295 295 295 295 295 295 295 296 296 296
318 317 317 316 316 315 314 313 311 310 307 304 301 299 297 297 297 296 296 296 296 296 297 297 297 297 297 297 296 296 296 296 295 295 295 295 295 295 295 295 295 295 296 296 296 295 295 295 295 295 295 295 295 294 294 295 295 295 295 295 295 296 296
314 314 314 314 313 313 312 311 310 307 304 302 299 297 297 296 296 296 296 296 296 296 297 297 297 297 297 296 296 296 296 295 295 295 295 295 295 294 294 294 295 295 295 295 295 295 295 295 295 295 295 295 294 294 294 294 294 294 294 295 295 295 296
312 313 312 312 312 311 310 309 307 304 302 299 297 296 296 296 296 296 296 296 296 296 297 297 297 297 297 296 296 296 296 295 295 295 295 295 295 295 294 294 295 295 295 295 295 295 295 295 295 295 295 295 295 294 294 294 294 294 294 294 295 295 295
312 312 311 311 310 309 308 307 304 302 299 297 296 296 296 296 296 295 295 296 296 296 296 296 296 296 296 296 296 295 295 295 295 295 295 296 296 295 294 294 294 295 295 295 295 295 295 295 295 295 295 295 295 294 294 294 294 294 294 294 294 295 295
311 311 311 310 309 308 307 305 302 300 299 296 296 296 295 295 295 295 296 295 296 296 296 296 296 296 296 296 295 295 295 295 295 295 296 296 296 295 294 294 294 295 295 295 295 295 295 295 295 295 295 295 294 294 294 294 293 293 294 294 294 295 295
310 310 310 309 308 306 304 303 301 300 298 296 295 295 295 295 295 295 295 295 295 295 295 295 295 295 296 296 295 296 296 295 295 296 297 297 296 295 294 294 294 295 295 295 294 295 295 295 295 295 295 295 294 294 294 293 293 293 294 294 294 295 295
310 308 308 307 306 305 303 302 302 300 297 295 295 295 295 295 295 295 295 295 295 295 295 295 295 295 295 295 296 296 296 295 296 297 297 297 296 296 295 294 294 295 295 295 294 294 295 295 295 295 295 294 294 294 294 293 293 293 294 294 295 295 296
309 308 307 306 306 305 304 303 302 299 297 295 295 295 295 295 295 295 295 295 295 295 295 295 295 295 295 295 296 296 296 296 296 297 297 297 296 296 295 294 294 295 295 295 295 294 295 294 294 294 294 294 294 294 293 292 293 294 294 294 295 295 296
309 308 307 307 306 305 304 303 301 298 295 295 295 295 295 295 295 295 295 295 295 295 295 295 295 295 295 295 296 296 297 296 296 296 296 296 296 295 294 294 295 295 295 295 295 295 295 294 294 294 293 293 293 293 292 292 293 294 294 294 295 296 296
308 308 307 306 305 304 303 301 299 297 296 295 295 295 295 295 295 295 295 295 295 295 295 295 295 295 295 295 295 296 297 296 296 296 296 296 295 295 294 294 295 295 295 295 295 295 294 294 294 293 293 293 292 292 292 292 293 293 294 294 295 296 296
307 307 306 305 304 303 303 301 299 299 297 295 294 295 295 295 295 295 295 295 295 295 295 295 295 295 294 294 295 296 296 296 295 295 295 296 295 294 294 294 294 294 294 295 295 295 294 294 293 293 292 292 292 292 292 292 293 293 294 294 295 295 295
306 306 306 305 304 303 303 301 300 300 298 295 294 295 294 295 295 295 295 295 295 295 295 295 294 294 294 294 294 295 295 295 295 295 295 295 294 294 294 294 294 294 294 294 295 294 294 293 292 292 292 292 292 292 292 292 293 293 293 294 294 295 295
306 305 305 304 303 303 303 302 300 300 298 295 294 294 294 295 295 295 295 295 294 295 295 295 294 294 294 294 294 294 294 294 294 295 294 294 294 294 294 294 294 293 293 294 294 293 293 292 292 292 292 292 292 292 292 292 293 293 293 293 294 295 295
306 306 305 303 302 303 303 301 300 300 298 295 294 294 294 294 295 295 294 294 294 294 295 294 294 294 293 293 293 293 293 294 294 294 294 293 294 294 294 293 293 293 293 293 293 292 292 292 292 292 292 292 292 292 292 292 292 293 293 293 294 294 294
306 305 304 302 301 302 302 301 299 299 298 296 294 294 294 294 295 294 294 294 294 294 294 294 294 294 293 293 293 293 293 293 294 293 293 293 294 294 293 293 293 292 292 292 292 292 292 292 292 292 292 292 292 292 292 292 292 292 293 293 293 294 294
305 304 303 301 300 300 300 300 299 298 297 296 294 294 294 294 294 294 294 294 294 294 294 294 294 293 293 293 293 293 293 293 293 293 293 293 293 293 293 293 292 292 292 292 292 292 292 292 292 292 292 292 292 292 291 292 292 292 292 293 293 293 294
303 302 302 301 301 300 299 299 298 297 296 295 294 294 294 294 294 294 294 294 294 294 294 293 293 293 293 293 293 293 293 293 293 293 293 293 293 293 293 293 292 292 292 292 292 292 292 292 292 291 291 291 291 291 291 291 292 292 292 292 293 293 294
302 302 301 301 300 299 298 297 296 295 295 294 293 293 294 293 293 294 294 294 293 293 293 293 293 293 293 293 293 293 293 293 293 293 293 293 293 293 293 292 292 292 291 291 291 291 291 291 291 291 291 291 291 291 291 291 291 291 292 292 293 293 294
303 302 300 299 298 297 296 295 294 294 294 294 293 293 293 293 293 293 294 294 293 293 293 293 293 293 293 293 293 292 292 293 293 293 293 293 293 292 292 292 292 291 291 291 291 291 291 291 291 290 290 290 291 291 291 291 291 291 291 292 293 294 294
303 301 298 296 296 296 295 294 293 293 293 293 293 293 293 293 293 293 294 294 293 293 293 293 293 293 293 293 292 292 293 293 293 293 292 292 292 292 292 292 292 291 291 291 291 291 291 291 291 291 291 291 291 291 291 291 291 291 291 292 293 294 294
Wind_Speed
21 20 18 17 15 14 14 13 12 11 10 9 8 9 9 9 10 12 12 13 14 14 14 14 15 16 16 17 16 15 14 12 11 10 10 9 9 9 9 9 10 11 13 14 14 16 18 23 28 27 26 25 23 22 21 19 21 21 20 20 20 22 24
20 19 18 16 15 14 14 13 12 11 10 9 9 10 10 12 13 13 13 13 13 13 13 13 14 14 14 14 13 12 12 11 11 11 11 11 10 10 9 9 9 10 11 12 12 14 15 21 26 27 27 26 24 23 23 20 19 20 20 20 20 20 22
21 20 19 17 16 16 15 14 13 12 11 11 11 12 13 14 14 13 12 12 11 11 11 12 12 12 11 11 11 11 11 11 11 12 12 12 11 10 9 9 9 10 10 11 12 13 13 15 18 21 24 25 25 25 26 24 21 20 20 20 20 20 20
21 20 20 19 18 17 16 15 14 13 12 13 13 13 14 14 13 12 10 9 9 9 9 9 9 9 10 10 10 10 10 11 11 11 11 11 11 11 11 12 13 13 13 13 14 14 15 15 17 20 21 22 23 24 25 26 23 20 19 18 20 20 20
20 20 19 19 18 17 16 16 15 14 13 13 13 13 13 12 10 9 8 7 7 7 7 7 8 8 9 9 9 9 9 10 10 10 10 10 11 11 13 14 15 15 15 15 15 15 16 16 17 19 21 22 23 23 24 25 23 21 19 18 21 21 21
20 19 19 18 17 16 15 14 13 13 13 13 13 12 10 8 7 6 5 5 5 5 6 6 7 7 7 7 8 8 8 9 9 9 10 10 11 12 14 14 14 14 14 14 14 14 15 16 18 19 20 21 23 23 23 23 24 23 22 22 23 23 23
20 19 17 16 16 15 14 13 13 14 13 12 11 8 6 5 4 3 3 3 4 5 5 5 5 6 6 7 7 8 8 8 8 9 10 10 11 12 13 13 13 13 13 14 15 16 17 18 20 23 24 24 24 23 23 23 24 25 26 27 26 25 26
19 18 17 16 15 15 14 14 14 13 12 11 8 5 4 3 2 1 1 2 3 4 4 4 5 5 6 7 7 7 8 8 8 9 10 10 11 12 12 13 13 13 14 15 16 17 19 20 21 23 25 26 27 27 27 26 25 25 28 30 28 27 28
19 18 17 17 16 15 14 14 13 12 11 9 6 4 3 2 1 0 1 2 3 4 4 5 5 5 6 6 6 7 7 7 8 9 9 10 10 11 12 12 13 14 15 16 17 17 19 20 20 21 23 24 26 27 29 30 29 28 29 32 31 30 30
19 18 17 16 16 14 14 13 12 12 11 8 5 4 3 2 1 0 1 3 3 4 4 5 5 5 5 5 6 6 7 8 8 8 9 9 10 11 12 13 14 15 16 16 17 18 18 18 19 21 22 22 22 24 25 29 31 31 31 33 34 34 33
19 17 16 15 14 14 13 14 14 13 11 7 4 4 3 2 1 1 2 3 3 4 4 4 4 4 4 5 5 6 8 8 8 7 8 9 10 11 12 13 14 15 16 17 17 17 17 18 20 21 21 21 22 23 22 24 28 31 33 34 34 35 36
18 17 16 15 14 13 14 15 15 13 10 6 4 3 2 2 1 1 2 2 2 3 3 3 3 3 4 4 5 6 8 7 6 7 9 10 11 11 12 13 14 15 16 16 16 16 17 19 20 21 21 23 24 25 24 23 26 30 32 34 35 35 36
17 17 16 15 14 14 15 16 15 13 9 6 5 3 3 3 3 2 1 1 2 2 3 2 2 2 3 3 4 6 8 6 6 8 10 10 11 12 13 13 14 14 15 15 15 17 19 20 21 22 23 25 25 25 25 24 26 30 31 31 34 35 35
17 17 16 15 16 17 17 16 15 12 9 7 5 5 5 4 3 2 0 0 1 2 2 2 2 2 3 3 5 7 7 6 7 9 10 10 12 12 12 12 13 15 15 16 17 18 20 21 23 24 25 25 24 24 25 25 26 31 32 31 32 34 35
18 18 18 18 18 18 18 16 14 10 9 8 7 7 6 4 3 2 1 1 2 2 2 2 2 2 3 4 5 7 7 7 7 9 9 10 11 11 11 12 14 16 17 17 18 19 20 22 23 24 24 23 23 23 23 24 26 30 33 34 34 35 36
20 20 20 20 20 19 18 15 12 11 9 8 8 8 6 4 3 3 3 3 3 3 3 2 2 2 3 4 5 6 7 7 7 8 9 10 11 11 12 13 15 16 17 17 18 19 20 21 22 22 23 22 21 21 22 24 26 29 33 34 34 35 37
20 20 21 21 20 18 16 14 12 10 8 8 8 7 6 5 4 4 4 4 4 4 3 3 2 2 3 4 5 5 6 7 7 8 9 10 11 12 13 15 16 16 16 17 18 19 20 21 21 21 21 21 21 22 23 23 25 27 31 34 35 35 36
19 19 19 19 17 16 15 14 12 9 7 7 7 7 7 6 6 6 5 5 5 5 4 3 2 2 3 4 5 4 4 5 6 7 9 11 13 15 15 16 16 16 16 17 18 19 19 19 19 19 20 21 22 23 24 24 25 26 29 33 35 36 36
17 18 18 18 17 16 15 12 10 8 8 6 6 7 7 7 7 7 6 6 6 5 4 3 2 2 3 4 4 4 4 4 5 7 10 13 15 16 16 16 16 16 16 17 17 17 18 18 18 19 20 21 23 24 25 26 27 28 30 32 34 36 37
18 18 17 17 16 15 13 11 9 8 8 7 7 7 8 8 8 7 7 7 6 5 4 3 2 2 3 4 4 4 4 5 6 8 10 13 15 16 17 16 15 15 15 16 16 16 17 17 18 19 20 21 22 24 26 27 29 30 31 32 33 35 37
18 17 16 16 15 14 13 11 9 8 7 8 8 8 8 8 8 8 8 7 7 6 5 3 2 2 3 4 4 4 5 5 6 8 10 12 14 16 16 15 14 13 13 13 14 14 15 16 17 18 19 20 22 24 27 29 31 32 32 32 33 34 36
17 17 16 16 16 15 13 12 10 9 8 8 9 9 9 8 8 8 8 8 7 6 5 4 3 2 2 4 4 4 4 5 6 8 9 11 13 15 15 14 13 11 10 11 11 12 13 15 17 19 20 21 23 26 29 31 32 32 31 32 33 34 36
17 18 18 17 17 16 14 13 11 9 8 9 10 10 10 10 9 8 8 8 7 6 5 4 4 3 2 3 4 5 5 5 6 7 8 10 12 13 14 13 12 9 8 10 11 11 12 13 14 17 20 22 24 27 31 33 32 30 30 31 32 33 35
18 19 19 18 17 16 15 13 12 10 9 10 11 11 10 10 10 9 8 7 7 7 6 5 4 3 3 3 4 5 5 5 5 6 7 8 11 12 12 12 10 8 9 11 12 13 13 13 14 17 19 21 24 27 30 32 31 28 28 30 31 32 33
20 20 19 18 17 16 15 13 11 10 11 12 12 11 11 10 10 10 9 8 8 7 6 5 5 4 4 3 3 5 5 5 5 5 6 8 10 10 10 9 8 8 9 12 13 14 14 16 18 20 21 23 24 26 28 29 27 26 27 29 30 31 32
21 21 20 19 18 17 15 13 11 11 12 13 13 12 11 11 11 10 9 8 8 7 7 6 6 5 4 3 2 3 4 4 4 4 5 7 9 9 8 7 6 7 9 12 13 14 16 19 21 22 23 25 26 26 27 27 25 24 25 27 29 29 30
22 22 21 20 19 17 16 14 12 12 13 13 13 13 12 12 11 11 10 9 8 8 8 7 7 5 4 3 2 3 3 3 3 4 5 7 9 8 7 6 6 7 10 12 14 16 18 20 22 24 24 26 27 27 28 28 26 25 24 25 27 28 29
22 22 21 20 19 18 16 15 13 13 14 14 13 13 13 12 12 11 10 9 9 8 8 8 7 5 4 3 2 2 2 1 2 3 5 7 8 6 6 7 8 9 11 12 13 16 19 21 22 23 25 26 27 28 29 29 28 27 26 25 25 26 29
24 23 22 21 20 18 17 15 13 13 14 14 14 14 13 13 12 12 11 10 9 8 8 8 7 6 4 2 2 2 1 1 1 3 4 6 5 5 7 9 10 10 11 12 13 15 18 21 22 23 25 27 28 29 30 29 28 27 27 26 24 25 28
25 24 24 22 20 19 19 17 14 13 14 15 15 14 14 13 12 11 11 10 8 7 7 7 7 6 4 2 1 1 1 0 1 2 3 3 3 5 8 9 9 10 11 11 13 15 18 20 22 24 26 27 29 30 31 31 30 29 29 28 26 26 28
25 25 24 22 20 21 20 18 15 13 13 14 15 14 14 14 13 12 11 10 9 7 7 7 7 6 5 3 2 0 0 1 1 2 2 1 3 6 7 8 8 10 11 12 13 16 18 20 22 24 27 28 30 31 32 32 32 32 32 31 30 29 29
25 25 24 22 21 21 21 18 16 14 14 14 15 15 15 14 13 12 11 10 9 8 7 7 7 7 6 4 2 2 1 1 1 1 0 1 3 5 6 7 9 10 11 12 14 16 18 20 22 24 26 28 30 32 33 33 33 33 34 35 34 34 33
23 23 23 22 21 21 20 19 17 16 16 16 16 16 15 14 13 13 12 11 10 9 8 7 7 6 6 5 3 3 3 2 1 1 2 1 2 3 5 7 9 10 12 13 15 17 19 20 22 23 25 27 30 31 32 32 32 32 34 35 36 35 34
22 22 22 22 22 21 20 19 18 17 18 18 18 17 16 15 14 14 13 12 10 9 8 7 7 6 6 5 4 4 3 3 3 3 2 1 1 3 5 7 9 11 12 14 16 18 19 20 21 22 24 25 27 29 30 31 32 32 33 34 36 36 35
22 21 22 23 23 22 21 20 19 19 20 20 19 18 17 16 16 15 14 13 12 10 9 8 7 6 6 5 4 4 4 4 3 3 2 1 2 3 5 7 10 11 13 14 16 18 19 20 21 22 22 24 25 26 28 30 32 33 33 35 36 36 36
22 21 23 24 24 23 22 21 21 21 22 21 20 19 18 17 17 15 15 14 12 11 9 8 8 7 6 5 4 4 4 4 4 3 2 2 2 4 6 8 10 12 13 14 16 17 19 20 21 21 22 23 24 26 27 29 31 33 34 35 36 37 37
22 22 24 24 24 24 24 23 23 24 23 22 21 20 19 18 17 15 14 13 12 11 10 9 7 7 6 5 5 5 5 5 4 3 2 2 3 5 7 8 10 12 13 14 15 16 18 19 21 21 22 23 24 25 27 30 32 33 34 35 35 36 37
Wind_Direction
200 196 196 199 201 204 208 212 218 224 230 237 250 264 274 285 292 295 298 299 300 301 305 310 314 318 322 324 326 328 330 331 332 334 334 334 334 335 336 327 316 309 306 310 315 317 317 310 309 314 316 318 325 330 333 329 325 323 319 313 310 306 304
204 201 197 200 202 205 210 216 222 228 237 246 259 272 281 288 292 294 296 296 297 302 308 315 319 323 326 329 331 333 334 335 336 338 338 341 345 345 342 333 322 315 310 309 309 312 315 314 315 321 324 324 327 337 344 342 335 330 327 324 320 315 309
204 203 200 201 202 203 209 218 226 233 244 257 268 278 285 291 294 295 297 299 302 308 315 320 323 327 331 333 333 333 335 336 338 342 345 350 354 354 350 341 334 329 325 323 321 322 325 324 323 328 333 331 330 336 341 344 345 339 333 330 325 322 319
209 208 205 202 202 205 212 223 233 241 252 265 274 282 288 293 296 298 301 305 308 314 322 327 329 332 332 331 331 334 338 342 347 352 354 358 358 355 355 356 357 358 356 354 351 350 347 343 340 338 339 336 332 335 338 341 346 344 337 333 330 330 327
216 214 210 206 206 211 219 228 238 248 261 272 280 286 289 292 297 302 306 308 312 321 329 332 332 330 328 329 331 336 343 348 353 354 354 360 360 359 3 6 9 8 6 7 5 2 358 353 349 344 342 340 338 338 338 340 344 344 343 340 338 338 335
218 216 213 210 212 217 226 234 245 257 267 275 282 286 288 293 299 302 305 309 318 329 333 333 329 324 325 330 334 339 345 350 353 353 357 3 4 8 11 10 11 11 10 11 8 3 0 356 351 348 348 346 342 340 340 343 346 344 343 346 347 345 342
216 214 213 216 221 227 234 243 254 263 270 277 283 287 288 291 293 291 304 315 324 330 330 330 326 326 331 335 339 343 349 357 360 0 4 9 10 12 13 12 12 13 13 12 7 3 1 359 357 355 352 347 343 343 344 348 351 347 343 347 351 351 346
216 214 214 219 227 235 242 250 258 266 274 282 286 289 283 270 264 267 301 318 325 328 333 336 334 336 339 340 346 351 357 7 8 8 12 14 12 13 15 17 16 15 15 13 8 6 5 4 3 1 357 353 349 346 344 347 354 353 348 347 349 353 351
216 216 217 221 229 236 243 251 260 269 279 289 289 275 258 239 230 255 321 332 336 333 337 340 336 338 342 347 356 358 8 18 12 13 18 15 15 19 21 21 18 16 17 15 10 9 8 6 6 4 4 3 359 353 346 347 352 354 352 350 347 350 353
218 220 223 226 231 234 242 253 263 271 282 290 274 240 227 208 182 25 346 334 333 334 336 335 334 339 346 354 3 9 21 24 14 15 21 19 23 27 25 22 20 19 19 16 12 10 9 8 9 8 9 10 8 4 355 348 351 353 351 352 351 347 348
218 222 225 229 233 236 247 260 267 274 282 278 243 212 201 186 171 325 318 321 325 331 335 338 341 348 355 3 9 21 31 25 13 21 32 32 34 32 26 24 23 22 20 16 13 12 12 12 14 15 15 14 11 11 6 351 348 353 351 350 352 349 346
218 223 227 230 232 238 253 263 266 273 275 255 217 194 187 199 228 259 282 309 326 338 351 1 4 1 3 9 16 32 41 33 22 38 47 44 41 34 28 27 25 23 21 17 15 16 17 19 20 19 16 15 13 11 11 359 346 351 354 350 349 351 348
218 223 227 230 234 243 255 259 264 271 262 232 205 189 193 211 221 225 254 318 345 18 32 36 26 17 14 22 36 50 55 49 41 51 53 49 45 35 28 27 25 25 24 19 20 21 21 22 20 18 15 14 14 11 10 6 351 347 355 354 349 350 350
218 223 227 232 239 247 251 255 262 261 238 214 199 189 196 201 203 206 218 41 60 67 70 78 69 48 38 40 56 66 68 63 55 58 56 50 44 34 26 26 26 29 27 23 24 23 22 21 18 17 15 13 14 13 8 6 356 347 350 354 352 351 352
222 226 231 237 242 245 249 254 254 237 214 202 189 181 185 186 183 177 148 123 118 119 119 117 95 69 47 42 61 73 74 68 60 58 54 46 43 36 29 29 30 32 29 25 25 23 21 21 18 17 16 13 13 13 9 3 357 350 347 350 352 351 352
227 231 235 239 241 242 245 244 229 210 200 190 179 174 170 166 166 162 151 152 154 149 145 135 106 72 42 39 59 77 78 72 62 55 50 46 46 43 36 34 35 34 30 26 26 25 22 21 19 17 17 16 12 9 7 2 356 351 346 346 350 350 350
230 233 234 235 235 234 231 219 205 197 187 173 167 166 160 157 159 158 158 163 163 158 156 143 105 66 45 48 60 73 80 76 64 53 49 48 47 44 39 37 36 33 30 27 27 26 24 21 20 19 18 16 12 5 2 359 355 351 345 343 346 348 349
224 223 221 220 218 214 209 203 195 186 175 165 161 158 157 158 156 154 158 163 164 162 158 141 109 81 63 59 60 69 85 85 67 55 50 48 45 41 37 36 36 33 29 28 28 27 26 23 20 20 17 13 9 4 0 357 353 349 345 342 342 345 347
203 203 202 201 201 200 199 197 189 176 169 168 165 161 159 156 151 150 157 161 161 162 158 147 126 95 70 64 68 80 95 92 71 58 53 50 46 39 35 34 34 33 29 27 27 27 27 25 21 17 13 8 5 1 358 355 352 348 344 342 341 343 345
192 193 193 194 195 196 195 190 184 175 168 166 165 161 157 153 149 151 158 159 160 161 161 153 127 100 79 75 84 97 102 94 74 61 53 48 44 38 35 35 33 32 30 28 27 26 24 22 20 15 8 1 357 355 353 351 349 347 345 342 342 343 344
192 192 192 194 194 194 192 187 181 175 164 159 161 157 153 153 153 155 158 159 162 163 159 153 134 112 94 87 97 112 108 92 72 59 51 44 38 34 35 36 34 34 34 31 28 25 21 16 13 10 3 357 353 351 351 350 348 348 346 344 343 344 344
192 195 196 197 196 194 192 186 179 173 162 158 162 158 156 159 158 159 160 161 163 164 163 162 148 125 106 100 109 121 113 92 71 56 47 39 31 28 32 36 37 38 39 38 32 26 21 15 8 2 358 355 352 351 351 350 349 348 346 344 344 344 345
195 198 197 197 196 194 192 187 181 174 166 164 168 165 162 162 161 162 164 163 166 169 168 165 151 132 120 105 98 103 107 98 75 52 40 33 24 20 26 32 36 39 40 36 29 24 21 15 5 357 355 353 350 350 350 350 350 349 346 345 344 345 347
196 197 195 196 195 193 192 191 187 181 175 172 174 171 166 164 162 164 167 168 172 173 168 161 151 140 129 99 77 81 91 97 80 53 31 24 19 16 21 26 28 32 30 23 20 21 17 8 359 355 354 353 349 348 350 350 350 350 347 345 343 346 348
196 197 197 198 198 197 197 197 193 186 180 179 177 172 168 168 167 168 170 174 175 170 165 159 152 145 131 106 77 77 85 89 79 52 23 16 14 13 19 24 24 24 19 10 9 11 7 359 357 355 354 354 352 352 352 352 352 350 347 345 343 346 351
200 200 201 202 202 201 201 200 194 188 184 181 177 173 171 173 173 171 171 173 172 168 164 157 146 137 132 122 104 92 86 79 64 35 12 10 8 9 18 24 25 24 13 1 359 0 357 354 356 356 355 356 357 356 356 356 356 352 347 344 343 346 352
202 201 200 202 203 201 201 198 192 189 188 182 177 176 176 177 177 174 169 170 171 167 160 151 142 138 141 139 124 107 94 73 45 13 1 3 2 5 21 27 22 16 4 354 352 353 352 353 355 356 357 360 1 1 359 359 359 356 350 346 344 346 351
201 201 200 201 201 200 201 200 193 189 186 182 179 179 179 179 178 173 167 167 169 165 156 147 142 141 142 139 126 110 99 66 22 355 352 356 356 9 35 38 27 15 1 352 348 347 349 353 355 356 360 3 5 4 3 2 1 356 351 348 346 346 350
201 202 202 203 203 203 205 205 199 190 184 182 181 180 179 178 177 173 167 164 165 163 156 148 141 139 137 131 123 112 100 42 350 346 347 347 355 27 41 34 26 18 8 358 349 346 349 355 357 358 1 6 7 7 7 6 3 359 355 352 349 349 351
202 204 206 208 208 208 210 208 204 197 189 185 182 179 178 176 174 172 166 159 160 163 159 151 141 136 132 119 103 98 97 214 302 341 346 348 22 45 35 25 18 14 10 2 352 349 352 357 360 359 1 5 6 7 8 7 6 4 1 358 355 353 354
207 208 211 214 211 210 212 211 208 202 195 189 184 179 178 175 170 167 163 158 159 164 163 154 143 135 132 122 112 122 202 217 262 329 345 21 55 49 35 24 15 8 6 1 354 353 356 360 0 360 1 3 4 6 7 6 5 6 5 3 1 360 360
211 211 213 214 212 213 213 211 208 202 196 192 187 179 178 177 170 165 163 162 161 162 162 155 144 135 129 125 130 154 179 214 247 283 239 83 59 52 41 27 16 8 3 358 354 355 359 0 0 360 360 0 1 4 7 5 3 4 5 5 4 3 4
211 212 214 212 211 214 214 211 207 200 192 190 187 181 177 175 172 166 163 164 164 161 158 151 141 132 126 126 134 146 157 177 194 194 186 154 58 51 41 26 16 9 1 356 355 356 358 359 359 359 359 358 360 2 4 4 5 4 5 5 5 5 7
212 212 214 213 212 213 212 210 205 197 189 186 184 181 176 174 174 170 164 164 163 160 155 147 138 131 127 130 137 141 149 162 172 181 184 154 60 41 30 19 13 7 0 355 354 355 356 357 358 359 359 358 358 360 1 3 5 6 6 6 7 8 10
210 210 213 213 211 208 207 206 201 193 187 185 182 180 176 175 175 172 167 165 162 157 154 147 140 134 132 135 138 140 150 165 171 171 159 108 52 29 20 14 9 4 359 356 355 354 355 358 0 2 2 359 358 359 1 4 6 7 8 7 8 11 13
208 210 211 208 203 200 199 198 193 187 184 183 181 178 177 176 176 174 170 165 160 157 155 149 142 139 139 141 143 145 153 166 165 153 129 81 42 27 20 14 9 5 1 360 358 356 357 1 5 6 5 3 2 2 3 5 7 9 10 9 9 13 14
210 210 205 199 195 195 195 191 185 182 181 181 181 180 180 179 176 175 172 165 161 159 156 150 146 146 146 146 148 148 152 156 149 132 107 59 38 29 22 17 12 8 6 4 1 358 359 4 8 9 8 7 6 6 7 8 9 10 11 10 11 13 15